McAlester, OK

6:53 AM CST on November 13, 2019 (GMT -0600)
McAlester Regional

Weather History for KMLC - August, 2019

Change the Weather History Date:

Monday, August 19, 2019

  Actual Average Record
Temperature  
Mean Temperature 90 °F -  
Max Temperature 100 °F 92 °F 106 °F (2011)
Min Temperature 79 °F 69 °F 56 °F (1976)
Cooling Degree Days 24    
Growing Degree Days 40 (Base 50)    
Moisture  
Dew Point 70 °F    
Average Humidity 56    
Maximum Humidity 79    
Minimum Humidity 34    
Precipitation  
Precipitation 0.00 in - - ()
Sea Level Pressure  
Sea Level Pressure 29.93 in    
Wind  
Wind Speed 4 mph (South)    
Max Wind Speed 10 mph    
Max Gust Speed -    
Visibility 10 miles    
Events      
Averages and records for this station are not official NWS values.
T = Trace of Precipitation, MM = Missing Value Source: NWS Daily Summary

Daily Weather History Graph

Daily Weather History Graph

Search for Another Location

Airport or City:

Astronomy

Aug. 19, 2019 Rise Set
Actual Time 6:46 AM CDT 8:06 PM CDT
Civil Twilight 6:19 AM CDT 8:33 PM CDT
Nautical Twilight 5:47 AM CDT 9:04 PM CDT
Astronomical Twilight 5:14 AM CDT 9:37 PM CDT
Moon 10:37 PM CDT (8/19) 10:20 AM CDT (8/19)
Length of Visible Light 14h 13m
Length of Day
13h 20m
Waning Gibbous, 85% of the Moon is Illuminated
Aug 19
Waning Gibbous
Aug 23
Last Quarter
Aug 30
New
Sep 5
First Quarter
Sep 13
Full

Hourly Weather History & Observations

Time (CDT) Temp. Heat Index Dew Point Humidity Pressure Visibility Wind Dir Wind Speed Gust Speed Precip Events Conditions
12:53 AM 84.0 °F 88.4 °F 70.0 °F 63% 29.89 in 10.0 mi Calm Calm - N/A   Mostly Cloudy
1:53 AM 82.0 °F 85.9 °F 70.0 °F 67% 29.89 in 10.0 mi Calm Calm - N/A   Partly Cloudy
2:53 AM 81.0 °F 84.4 °F 70.0 °F 69% 29.89 in 10.0 mi SE 4.6 mph - N/A   Clear
3:53 AM 79.0 °F - 70.0 °F 74% 29.90 in 10.0 mi Variable 3.5 mph - N/A   Clear
4:53 AM 80.1 °F 83.6 °F 71.1 °F 74% 29.91 in 10.0 mi South 3.5 mph - N/A   Clear
5:53 AM 80.1 °F 83.8 °F 72.0 °F 76% 29.93 in 10.0 mi South 3.5 mph - N/A   Clear
6:53 AM 79.0 °F - 72.0 °F 79% 29.95 in 10.0 mi SSE 4.6 mph - N/A   Clear
7:53 AM 81.0 °F 85.8 °F 73.0 °F 77% 29.96 in 10.0 mi Variable 4.6 mph - N/A   Clear
8:53 AM 84.0 °F 91.2 °F 73.9 °F 72% 29.97 in 10.0 mi Variable 5.8 mph - N/A   Clear
9:53 AM 87.1 °F 93.6 °F 72.0 °F 61% 29.97 in 10.0 mi SSW 8.1 mph - N/A   Clear
10:53 AM 91.0 °F 98.2 °F 72.0 °F 53% 29.98 in 10.0 mi Variable 5.8 mph - N/A   Clear
11:53 AM 95.0 °F 102.5 °F 71.1 °F 46% 29.98 in 10.0 mi SSW 10.4 mph - N/A   Clear
12:53 PM 97.0 °F 104.8 °F 71.1 °F 43% 29.96 in 10.0 mi WSW 6.9 mph - N/A   Clear
1:53 PM 99.0 °F 105.5 °F 69.1 °F 38% 29.95 in 10.0 mi Variable 6.9 mph - N/A   Clear
2:53 PM 100.0 °F 105.6 °F 68.0 °F 35% 29.93 in 10.0 mi SSW 9.2 mph - N/A   Clear
3:53 PM 100.9 °F 106.7 °F 68.0 °F 34% 29.91 in 10.0 mi Variable 5.8 mph - N/A   Clear
4:53 PM 100.9 °F 106.7 °F 68.0 °F 34% 29.89 in 10.0 mi South 8.1 mph - N/A   Clear
5:53 PM 100.0 °F 104.9 °F 66.9 °F 34% 29.90 in 10.0 mi Variable 3.5 mph - N/A   Clear
6:53 PM 98.1 °F 104.4 °F 69.1 °F 39% 29.89 in 10.0 mi South 5.8 mph - N/A   Clear
7:53 PM 91.9 °F 97.4 °F 70.0 °F 48% 29.91 in 10.0 mi South 3.5 mph - N/A   Clear
8:53 PM 90.0 °F 94.5 °F 69.1 °F 50% 29.93 in 10.0 mi South 4.6 mph - N/A   Clear
9:53 PM 89.1 °F 93.7 °F 69.1 °F 52% 29.95 in 10.0 mi South 4.6 mph - N/A   Clear
10:53 PM 88.0 °F 92.1 °F 69.1 °F 53% 29.97 in 10.0 mi South 5.8 mph - N/A   Clear
11:53 PM 84.9 °F 89.4 °F 70.0 °F 61% 29.98 in 10.0 mi SE 4.6 mph - N/A   Clear